Header for Extended Forecast Station List Page

Search by: ID | Name | Date | Parm | Value | Avg | % Avg
Sort by: ID | Name | Date | Parm | Value | Avg | % Avg

Enter search or view all records.

Click on id for station plot
#IDNameDateParmValueAvg% Avg
0HWRI1BIG LOST-AT HOWELL RANCH NEAR CHILLY09-26-2016DISCHARGE (KAF)222396
1MACI1BIG LOST-MACKAY RESERVOIR NEAR MACKAY09-26-2016INFLOW (KAF)388489
2HALI1BIG WOOD-AT HAILEY09-26-2016DISCHARGE (KAF)354285
3MAGI1BIG WOOD-MAGIC DAM09-26-2016INFLOW (KAF)202775
4BITM8BITTERROOT-NEAR MISSOULA09-26-2016DISCHARGE (KAF)17523275
5BONM8BLACKFOOT-NEAR BONNER09-26-2016DISCHARGE (KAF)10414074
6BIGI1BOISE-AT GLENWOOD BRIDGE09-26-2016DISCHARGE (KAF)4745103
7LUCI1BOISE-LUCKY PEAK DAM09-26-2016INFLOW (KAF)26MM
8PARI1BOISE-NEAR PARMA09-26-2016DISCHARGE (KAF)18721587
9HOTI1BRUNEAU-NEAR HOT SPRINGS09-26-2016DISCHARGE (KAF)3225128
10BULO3BULLY CREEK-BULLY CREEK DAM09-26-2016INFLOW (KAF)1158
11BUDW1BUMPING-BUMPING LAKE DAM09-26-2016INFLOW (KAF)223268
12CHDW1CHELAN-LAKE CHELAN DAM09-26-2016INFLOW (KAF)210156135
13ABOM8CLARK FORK-ABOVE MISSOULA09-26-2016DISCHARGE (KAF)26935576
14DLGM8CLARK FORK-AT DEER LODGE09-26-2016DISCHARGE (KAF)436369
15SRGM8CLARK FORK-AT ST REGIS09-26-2016DISCHARGE (KAF)55076872
16BELM8CLARK FORK-BELOW MISSOULA09-26-2016DISCHARGE (KAF)44259474
17CABI1CLARK FORK-CABINET GORGE DAM09-26-2016INFLOW (KAF)2523349972
18NOXM8CLARK FORK-NOXON RAPIDS DAM09-26-2016INFLOW (KAF)2303336368
19DRMM8CLARK FORK-NR DRUMMOND09-26-2016DISCHARGE (KAF)108MM
20CLUW1CLE ELUM-CLE ELUM LAKE09-26-2016INFLOW (KAF)899494
21ORFI1CLEARWATER-AT OROFINO09-26-2016DISCHARGE (KAF)43958675
22SPDI1CLEARWATER-AT SPALDING09-26-2016DISCHARGE (KAF)867139862
23COEI1COEUR D ALENE-COEUR D ALENE LAKE09-26-2016INFLOW (KAF)28850357
24CIBW1COLUMBIA-AT INTL BOUNDARY09-26-2016DISCHARGE (KAF)18409MM
25BONO3COLUMBIA-BONNEVILLE DAM09-26-2016INFLOW (KAF)27947MM
26CHJW1COLUMBIA-CHIEF JOSEPH DAM09-26-2016INFLOW (KAF)194932006897
27GCDW1COLUMBIA-GRAND COULEE DAM09-26-2016INFLOW (KAF)1915517240111
28JDAO3COLUMBIA-JOHN DAY DAM09-26-2016INFLOW (KAF)266482868393
29MCDW1COLUMBIA-MCNARY DAM09-26-2016INFLOW (KAF)257392793792
30PRWW1COLUMBIA-PRIEST RAPIDS DAM09-26-2016INFLOW (KAF)2052619355106
31RRHW1COLUMBIA-ROCKY REACH DAM09-26-2016INFLOW (KAF)202252092597
32TDAO3COLUMBIA-THE DALLES DAM09-26-2016INFLOW (KAF)273213143587
33WANW1COLUMBIA-WANAPUM DAM09-26-2016INFLOW (KAF)2052519040108
34WELW1COLUMBIA-WELLS DAM09-26-2016INFLOW (KAF)198192041497
35DEDI1DEADWOOD-NEAR LOWMAN09-26-2016INFLOW (KAF)171891
36MODO3DESCHUTES-AT MOODY NR BIGGS09-26-2016DISCHARGE (KAF)1218128795
37ARDW1ENTIAT-NEAR ARDENVOIR09-26-2016DISCHARGE (KAF)2922135
38CHEI1FALL RIVER-NEAR CHESTER09-26-2016DISCHARGE (KAF)10610898
39CFMM8FLATHEAD-AT COLUMBIA FALLS09-26-2016DISCHARGE (KAF)949120978
40KERM8FLATHEAD-KERR DAM09-26-2016INFLOW (KAF)1067148872
41TRYO3GRANDE RONDE-TROY09-26-2016DISCHARGE (KAF)15425161
42REXI1HENRYS FORK-AT REXBURG09-26-2016DISCHARGE (KAF)41442498
43ANTI1HENRYS FORK-AT ST. ANTHONY09-26-2016DISCHARGE (KAF)32933498
44IPDI1HENRYS FORK-ISLAND PARK DAM09-26-2016INFLOW (KAF)11312094
45HODO3HOOD-NEAR TUCKER BRIDGE09-26-2016DISCHARGE (KAF)208188111
46SERO3JOHN DAY-AT SERVICE CK09-26-2016DISCHARGE (KAF)9414167
47KADW1KACHESS-KACHESS DAM09-26-2016INFLOW (KAF)353989
48LAUW1KETTLE-AT LAURIER09-26-2016DISCHARGE (KAF)10912885
49PITW1KLICKITAT-NEAR PITT09-26-2016DISCHARGE (KAF)21323491
50BFEI1KOOTENAI-AT BONNERS FERRY09-26-2016STAGE (FT)MMM
51LEOI1KOOTENAI-AT LEONIA09-26-2016DISCHARGE (KAF)27331694161
52LYDM8KOOTENAI-LIBBY DAM09-26-2016INFLOW (KAF)97399798
53LWRI1LITTLE WOOD-LITTLE WOOD DAM09-26-2016INFLOW (KAF)101564
54BERO3MALHEUR-AGENCY VALLEY DAM09-26-2016INFLOW (KAF)101373
55VALO3MALHEUR-NEAR VALE09-26-2016DISCHARGE (KAF)162467
56WRMO3MALHEUR-WARM SPRINGS DAM09-26-2016INFLOW (KAF)101469
57MYKO3MCKAY CREEK-NEAR PILOT ROCK09-26-2016DISCHARGE (KAF)101096
58PATW1METHOW-NEAR PATEROS09-26-2016DISCHARGE (KAF)9110091
59WGCM8MF FLATHEAD-NEAR WEST GLACIER09-26-2016DISCHARGE (KAF)226178127
60CLFW1NACHES-NEAR CLIFFDEL09-26-2016DISCHARGE (KAF)719376
61NACW1NACHES-NEAR NACHES09-26-2016DISCHARGE (KAF)7670109
62DWRI1NF CLEARWATER-DWORSHAK DAM09-26-2016INFLOW (KAF)27344262
63FCFM8NF FLATHEAD-NEAR COLUMBIA FALLS09-26-2016DISCHARGE (KAF)225204110
64MONO3NF JOHN DAY-AT MONUMENT09-26-2016DISCHARGE (KAF)547274
65CSDI1NF PAYETTE-CASCADE DAM09-26-2016INFLOW (KAF)759182
66TONW1OKANOGAN-NEAR TONASKET09-26-2016DISCHARGE (KAF)23527885
67OWYO3OWYHEE-OWYHEE DAM09-26-2016INFLOW (KAF)646895
68EMMI1PAYETTE-NEAR EMMETT09-26-2016DISCHARGE (KAF)22334664
69ALFW1PEND OREILLE-ALBENI FALLS DAM09-26-2016INFLOW (KAF)2782403669
70HOPI1PEND OREILLE-PEND OREILLE LAKE NR HOPE09-26-2016LAKE ELEVATION (FT)MMM
71PIHI1PORTNEUF-AT POCATELLO09-26-2016DISCHARGE (KAF)485687
72PRTI1PRIEST-NEAR PRIEST RIVER09-26-2016DISCHARGE (KAF)21722497
73RCCM8ROCK CREEK-NEAR CLINTON09-26-2016DISCHARGE (KAF)475290
74WHBI1SALMON-AT WHITEBIRD09-26-2016DISCHARGE (KAF)953109587
75ARAI1SF BOISE-ANDERSON RANCH DAM09-26-2016INFLOW (KAF)677294
76HHWM8SF FLATHEAD-HUNGRY HORSE DAM09-26-2016INFLOW (KAF)15224363
77PLDI1SF SNAKE-PALISADES DAM09-26-2016INFLOW (KAF)63668693
78SIFI1SNAKE-AB EAGLE ROCK NR IDAHO FALLS09-26-2016DISCHARGE (KAF)867830104
79AFRI1SNAKE-AMERICAN FALLS RESERVOIR09-26-2016INFLOW (KAF)1399142298
80SNAI1SNAKE-AT BLACKFOOT09-26-2016DISCHARGE (KAF)747685109
81MILI1SNAKE-AT MILNER09-26-2016DISCHARGE (KAF)11643927
82WEII1SNAKE-AT WEISER09-26-2016DISCHARGE (KAF)2685351476
83SWAI1SNAKE-BELOW SWAN FALLS09-26-2016DISCHARGE (KAF)1888246876
84BRNI1SNAKE-BROWNLEE DAM09-26-2016INFLOW (KAF)2867358980
85IHDW1SNAKE-ICE HARBOR DAM09-26-2016INFLOW (KAF)4577693966
86JLKW4SNAKE-JACKSON LAKE AT DAM09-26-2016INFLOW (KAF)8511176
87LGSW1SNAKE-LITTLE GOOSE DAM09-26-2016INFLOW (KAF)4551697965
88LGDW1SNAKE-LOWER GRANITE DAM09-26-2016INFLOW (KAF)4551693366
89LMNW1SNAKE-LOWER MONUMENTAL DAM09-26-2016INFLOW (KAF)4577701765
90ALPW4SNAKE-NEAR ALPINE09-26-2016DISCHARGE (KAF)38942991
91ANAW1SNAKE-NEAR ANATONE09-26-2016DISCHARGE (KAF)3685535769
92BFTI1SNAKE-NEAR BLACKFOOT09-26-2016DISCHARGE (KAF)763738103
93HEII1SNAKE-NEAR HEISE09-26-2016DISCHARGE (KAF)67668898
94JKSW4SNAKE-NEAR JACKSON09-26-2016DISCHARGE (KAF)353339104
95SHYI1SNAKE-NEAR SHELLEY09-26-2016DISCHARGE (KAF)854793108
96LLKW1SPOKANE-AT LONGLAKE09-26-2016INFLOW (KAF)60795364
97SPOW1SPOKANE-AT SPOKANE09-26-2016DISCHARGE (KAF)445MM
98SJMI1ST JOE-AT ST MARIES09-26-2016STAGE (FT)MMM
99SATI1ST MARIES-NEAR SANTA09-26-2016DISCHARGE (KAF)152558
100STRM8ST. REGIS-NEAR ST. REGIS09-26-2016DISCHARGE (KAF)173450
101TNAW1TEANAWAY-BELOW FORKS09-26-2016DISCHARGE (KAF)143046
102TEAI1TETON-NEAR ST. ANTHONY09-26-2016DISCHARGE (KAF)9911487
103RILW1TIETON-RIMROCK LAKE NEAR RIMROCK09-26-2016INFLOW (KAF)536285
104PDTO3UMATILLA-AT PENDLETON09-26-2016DISCHARGE (KAF)455483
105GIBO3UMATILLA-NEAR GIBBON09-26-2016DISCHARGE (KAF)182672
106UMAO3UMATILLA-NEAR UMATILLA09-26-2016DISCHARGE (KAF)7354135
107TCHW1WALLA WALLA-NEAR TOUCHET09-26-2016DISCHARGE (KAF)777899
108WSRI1WEISER-NEAR WEISER09-26-2016DISCHARGE (KAF)395868
109PESW1WENATCHEE-AT PESHASTIN09-26-2016DISCHARGE (KAF)303277109
110UNDW1WHITE SALMON-NEAR UNDERWOOD09-26-2016DISCHARGE (KAF)210203104
111RIDI1WILLOW CREEK-RIRIE DAM09-26-2016INFLOW (KAF)8899
112EASW1YAKIMA-AT EASTON09-26-2016DISCHARGE (KAF)7061115
113KIOW1YAKIMA-AT KIONA09-26-2016DISCHARGE (KAF)57062092
114UMTW1YAKIMA-AT UMTANUM09-26-2016DISCHARGE (KAF)21525584
115KEDW1YAKIMA-KEECHELUS LAKE09-26-2016INFLOW (KAF)4847101
116PARW1YAKIMA-NEAR PARKER09-26-2016DISCHARGE (KAF)35337494